Location: Mlawa
(53.7000°N, 20.2200°E)
Time: 23:41:08
(UTC+01:00)

ISS - Visible Passes

Search period start: 21 January 2018 00:00
Search period end: 31 January 2018 00:00
Orbit: 402 x 407 km, 51.6° (Epoch: 22 January)

Date Brightness Start Highest point End Pass type
(mag) Time Alt. Az. Time Alt. Az. Time Alt. Az.
27 Jan -1.6 18:04:53 10° S 18:06:25 15° SSE 18:06:25 15° SSE visible
28 Jan -1.8 18:47:30 10° SW 18:49:02 22° SSW 18:49:02 22° SSW visible
29 Jan -2.4 17:55:33 10° SSW 17:58:15 24° SSE 17:58:54 22° SE visible
29 Jan -0.7 19:31:08 10° WSW 19:31:34 13° WSW 19:31:34 13° WSW visible
30 Jan -1.8 17:03:52 10° S 17:06:04 17° SE 17:08:16 10° ESE visible
30 Jan -2.8 18:38:52 10° WSW 18:41:22 39° SSW 18:41:22 39° SSW visible
